Location: Huberhof
(49.2050°N, 7.4980°E)
Time: 05:24:50
(UTC+00:00)

BREEZE-M TANK - Pass Details

Date: 29 October 2020
Orbit: 546 x 24740 km, 45.2° (Epoch: 21 November)

Event Time Altitude Azimuth Distance (km) Brightness Sun altitude
Rises 17:04:40 0° 267° (W) 8,260 10.5 -8.9°
Reaches altitude 10° 17:12:19 10° 265° (W) 5,034 8.8 -10.2°
Maximum altitude 17:21:51 60° 189° (S) 989 3.6 -11.7°
Enters shadow 17:24:54 15° 110° (ESE) 1,704 4.3 -12.2°
